Date String (YYYY-MM-DD hh:mm:ss) UTC,Instrument flags,Ambient pressure (hPa),Sample flow (lpm),Bypass flow (lpm),Sample temperature (°C),Ambient temperature (°C),ASC tube jacket temperature (°C),LED temperature (°C),Box temperature (°C),Sample RH (%),Span deviation,Mass concentration (μg/m³),Mass concentration (μg/m³),Mass concentration (μg/m³)
DateTimeUTC,F1_M11,P_M11,Q1_M11,Q2_M11,T1_M11,T2_M11,T3_M11,T4_M11,T5_M11,U1_M11,ZSPAN_M11,X0_M11,X2_M11,X1_M11
2022-02-16 10:00:00,,0816.3,5.02,0.00,24.7,23.9,00.0,33.7,26.5,12.7,0000.0,0009.74,0003.76,0002.63
2022-02-16 10:01:00,,0816.3,5.00,0.00,24.7,23.9,00.0,33.7,26.5,12.7,0000.0,0010.00,0003.74,0002.64
2022-02-16 10:02:00,,0816.4,4.99,0.00,24.6,23.8,00.0,33.7,26.4,12.7,0000.0,0010.01,0003.75,0002.65
2022-02-16 10:03:00,,0816.4,5.01,0.00,24.6,23.8,00.0,33.7,26.4,12.8,0000.0,0009.33,0003.72,0002.65
2022-02-16 10:04:00,,0816.4,4.99,0.00,24.6,23.8,00.0,33.7,26.4,12.8,0000.0,0009.98,0003.74,0002.65
2022-02-16 10:05:00,,0816.4,4.99,0.00,24.6,23.8,00.0,33.6,26.5,12.7,0000.0,0010.53,0003.74,0002.67
2022-02-16 10:06:00,,0816.4,5.02,0.00,24.6,23.8,00.0,33.6,26.5,12.7,0000.0,0011.00,0003.74,0002.68
2022-02-16 10:07:00,,0816.4,5.00,0.00,24.6,23.9,00.0,33.6,26.5,12.7,0000.0,0011.42,0003.74,0002.67
2022-02-16 10:08:00,,0816.4,5.00,0.00,24.6,23.9,00.0,33.6,26.5,12.7,0000.0,0011.90,0003.68,0002.66
2022-02-16 10:09:00,,0816.4,4.99,0.00,24.6,23.8,00.0,33.6,26.5,12.7,0000.0,0012.07,0003.67,0002.66
2022-02-16 10:10:00,,0816.3,5.01,0.00,24.6,23.8,00.0,33.6,26.5,12.7,0000.0,0012.06,0003.66,0002.65
2022-02-16 10:11:00,,0816.2,4.99,0.00,24.6,23.8,00.0,33.6,26.5,12.7,0000.0,0011.65,0003.65,0002.69
2022-02-16 10:12:00,,0816.1,5.00,0.00,24.6,23.7,00.0,33.6,26.5,12.7,0000.0,0011.48,0003.67,0002.70
2022-02-16 10:13:00,,0816.1,5.01,0.00,24.6,23.6,00.0,33.6,26.4,12.8,0000.0,0011.15,0003.61,0002.68
2022-02-16 10:14:00,,0816.1,4.99,0.00,24.6,23.5,00.0,33.6,26.4,12.8,0000.0,0011.07,0003.61,0002.67
2022-02-16 10:15:00,,0816.1,5.01,0.00,24.6,23.5,00.0,33.6,26.3,12.8,0000.0,0010.48,0003.63,0002.68
2022-02-16 10:16:00,,0816.2,4.99,0.00,24.6,23.6,00.0,33.6,26.3,12.8,0000.0,0009.76,0003.62,0002.66
2022-02-16 10:17:00,,0816.1,5.02,0.00,24.6,23.6,00.0,33.6,26.4,12.8,0000.0,0009.39,0003.61,0002.67
2022-02-16 10:18:00,,0816.1,4.99,0.00,24.5,23.6,00.0,33.6,26.4,12.8,0000.0,0009.25,0003.63,0002.69
2022-02-16 10:19:00,,0816.2,4.99,0.00,24.6,23.6,00.0,33.6,26.4,12.8,0000.0,0008.68,0003.61,0002.70
2022-02-16 10:20:00,,0816.1,5.02,0.00,24.5,23.7,00.0,33.6,26.3,12.8,0000.0,0008.45,0003.62,0002.70
2022-02-16 10:21:00,,0816.2,4.99,0.00,24.6,23.7,00.0,33.5,26.4,12.8,0000.0,0008.68,0003.66,0002.72
2022-02-16 10:22:00,,0816.1,4.99,0.00,24.6,23.7,00.0,33.5,26.4,12.8,0000.0,0008.87,0003.63,0002.71
2022-02-16 10:23:00,,0816.0,5.01,0.00,24.5,23.7,00.0,33.5,26.4,12.8,0000.0,0008.79,0003.64,0002.72
2022-02-16 10:24:00,,0815.9,4.99,0.00,24.5,23.6,00.0,33.5,26.3,12.8,0000.0,0008.91,0003.68,0002.74
2022-02-16 10:25:00,,0815.9,4.99,0.00,24.5,23.5,00.0,33.5,26.3,12.9,0000.0,0009.02,0003.70,0002.75
2022-02-16 10:26:00,,0815.9,5.00,0.00,24.5,23.4,00.0,33.5,26.3,12.9,0000.0,0009.64,0003.71,0002.76
2022-02-16 10:27:00,,0815.9,5.00,0.00,24.5,23.4,00.0,33.5,26.3,12.9,0000.0,0009.60,0003.73,0002.77
2022-02-16 10:28:00,,0816.0,4.99,0.00,24.4,23.5,00.0,33.5,26.3,12.9,0000.0,0009.87,0003.74,0002.77
2022-02-16 10:29:00,,0816.0,4.99,0.00,24.4,23.5,00.0,33.5,26.3,12.9,0000.0,0009.28,0003.73,0002.76
2022-02-16 10:30:00,,0816.0,5.01,0.00,24.4,23.5,00.0,33.4,26.3,12.9,0000.0,0009.27,0003.75,0002.76
2022-02-16 10:31:00,,0816.0,4.99,0.00,24.4,23.5,00.0,33.4,26.3,12.9,0000.0,0009.48,0003.77,0002.77
2022-02-16 10:32:00,,0816.0,5.02,0.00,24.4,23.6,00.0,33.4,26.3,12.9,0000.0,0009.68,0003.75,0002.78
2022-02-16 10:33:00,,0815.9,5.01,0.00,24.4,23.6,00.0,33.4,26.3,12.9,0000.0,0009.73,0003.78,0002.80
2022-02-16 10:34:00,,0815.9,4.99,0.00,24.4,23.6,00.0,33.4,26.3,12.9,0000.0,0009.52,0003.75,0002.80
2022-02-16 10:35:00,,0815.9,5.01,0.00,24.4,23.5,00.0,33.4,26.2,12.9,0000.0,0009.61,0003.71,0002.80
2022-02-16 10:36:00,,0815.9,5.00,0.00,24.4,23.4,00.0,33.4,26.2,12.9,0000.0,0011.34,0003.73,0002.82
2022-02-16 10:37:00,,0815.9,4.99,0.00,24.4,23.3,00.0,33.4,26.1,12.9,0000.0,0011.72,0003.74,0002.82
2022-02-16 10:38:00,,0815.9,5.01,0.00,24.3,23.3,00.0,33.4,26.1,12.9,0000.0,0011.90,0003.79,0002.82
2022-02-16 10:39:00,,0815.9,4.99,0.00,24.3,23.3,00.0,33.4,26.1,13.0,0000.0,0011.93,0003.84,0002.83
2022-02-16 10:40:00,,0815.9,5.01,0.00,24.3,23.3,00.0,33.3,26.1,13.0,0000.0,0012.00,0003.86,0002.85
2022-02-16 10:41:00,,0815.8,4.98,0.00,24.3,23.4,00.0,33.3,26.0,13.0,0000.0,0011.95,0003.82,0002.86
2022-02-16 10:42:00,,0815.8,5.01,0.00,24.3,23.4,00.0,33.3,26.0,13.0,0000.0,0011.82,0003.80,0002.86
2022-02-16 10:43:00,,0815.8,5.00,0.00,24.3,23.4,00.0,33.3,26.1,13.0,0000.0,0012.87,0003.83,0002.87
2022-02-16 10:44:00,,0815.8,5.00,0.00,24.3,23.5,00.0,33.3,26.1,13.0,0000.0,0012.82,0003.86,0002.87
2022-02-16 10:45:00,,0815.8,5.02,0.00,24.3,23.5,00.0,33.3,26.1,13.0,0000.0,0013.13,0003.91,0002.86
2022-02-16 10:46:00,,0815.8,4.99,0.00,24.3,23.5,00.0,33.3,26.1,13.0,0000.0,0012.96,0003.95,0002.86
2022-02-16 10:47:00,,0815.8,5.00,0.00,24.3,23.5,00.0,33.3,26.1,13.0,0000.0,0010.95,0003.90,0002.87
2022-02-16 10:48:00,,0815.8,5.01,0.00,24.3,23.5,00.0,33.3,26.2,13.0,0000.0,0009.98,0003.86,0002.85
2022-02-16 10:49:00,,0815.8,5.00,0.00,24.3,23.5,00.0,33.3,26.1,13.0,0000.0,0010.03,0003.83,0002.84
2022-02-16 10:50:00,,0815.8,5.00,0.00,24.3,23.6,00.0,33.3,26.2,13.0,0000.0,0010.14,0003.80,0002.84
2022-02-16 10:51:00,,0815.8,5.02,0.00,24.3,23.6,00.0,33.3,26.2,12.9,0000.0,0011.59,0003.80,0002.82
2022-02-16 10:52:00,,0815.8,4.99,0.00,24.3,23.6,00.0,33.3,26.2,13.0,0000.0,0011.73,0003.83,0002.81
2022-02-16 10:53:00,,0815.8,5.01,0.00,24.3,23.6,00.0,33.3,26.2,13.0,0000.0,0011.68,0003.82,0002.82
2022-02-16 10:54:00,,0815.8,5.00,0.00,24.3,23.6,00.0,33.3,26.1,13.0,0000.0,0010.78,0003.81,0002.81
2022-02-16 10:55:00,,0815.7,4.99,0.00,24.3,23.6,00.0,33.3,26.1,13.0,0000.0,0010.79,0003.80,0002.80
2022-02-16 10:56:00,,0815.8,5.02,0.00,24.3,23.6,00.0,33.3,26.2,13.0,0000.0,0010.61,0003.78,0002.82
2022-02-16 10:57:00,,0815.7,4.99,0.00,24.3,23.5,00.0,33.3,26.2,13.0,0000.0,0010.52,0003.74,0002.82
2022-02-16 10:58:00,,0815.7,5.00,0.00,24.3,23.5,00.0,33.3,26.2,13.0,0000.0,0010.42,0003.72,0002.81
2022-02-16 10:59:00,,0815.7,4.99,0.00,24.3,23.5,00.0,33.3,26.2,13.0,0000.0,0010.66,0003.71,0002.81
